Weather History for Linden, NJ

Change the Weather History Date:

Wednesday, November 27, 2013

  Actual Average (KEWR) Record (KEWR)
Temperature  
Mean Temperature 50 °F 43 °F  
Max Temperature 64 °F 50 °F 67 °F (1959)
Min Temperature 35 °F 36 °F 12 °F (1932)
Degree Days  
Heating Degree Days 16 22  
Month to date heating degree days 478  
Since 1 July heating degree days 799  
Cooling Degree Days 0 0  
Month to date cooling degree days 0  
Year to date cooling degree days 1191  
Moisture  
Dew Point 44 °F    
Average Humidity 84    
Maximum Humidity 96    
Minimum Humidity 54    
Precipitation  
Precipitation 1.59 in 0.13 in 1.91 in (2013)
Month to date precipitation 3.25  
Year to date precipitation 42.04  
Snow  
Snow 0.00 in 0.00 in 3.00 in (1938)
Month to date snowfall 0.3  
Since 1 July snowfall 0.3  
Snow Depth -    
Sea Level Pressure  
Sea Level Pressure 29.51 in    
Wind  
Wind Speed 14 mph (WNW)    
Max Wind Speed 26 mph    
Max Gust Speed 32 mph    
Visibility 6 miles    
Events Rain    
T = Trace of Precipitation, MM = Missing Value Source: NWS Daily Summary

Daily Weather History Graph

Daily Weather History Graph

Search for Another Location

Airport:

Trip Planner

Search our weather history database for the weather conditions in past years. The results will help you decide how hot, cold, wet, or windy it might be!

Date:

Astronomy

Nov. 27, 2013 Rise Set
Actual Time 6:57 AM EST 4:31 PM EST
Civil Twilight 6:27 AM EST 5:01 PM EST
Nautical Twilight 5:53 AM EST 5:35 PM EST
Astronomical Twilight 5:20 AM EST 6:08 PM EST
Moon 12:55 AM EST (11/27) 1:09 PM EST (11/27)
Length of Visible Light 10h 34m
Length of Day
9h 34m
Waning Crescent, 32% of the Moon is Illuminated
Nov 27
Waning Crescent
Dec 2
New
Dec 9
First Quarter
Dec 17
Full
Dec 25
Last Quarter

Hourly Weather History & Observations

Time (EST) Temp. Windchill Dew Point Humidity Pressure Visibility Wind Dir Wind Speed Gust Speed Precip Events Conditions
12:15 AM 54.9 °F - 53.6 °F 96% 29.74 in 2.5 mi SE 18.4 mph 29.9 mph 0.07 in Rain Heavy Rain
12:35 AM 55.4 °F - 53.8 °F 94% 29.72 in 3.0 mi SE 23.0 mph 28.8 mph 0.13 in Rain Heavy Rain
12:55 AM 55.4 °F - 54.0 °F 95% 29.69 in 3.0 mi SE 16.1 mph 29.9 mph 0.21 in Rain Heavy Rain
1:15 AM 55.8 °F - 54.5 °F 96% 29.66 in 3.0 mi SE 15.0 mph 26.5 mph 0.08 in Rain Heavy Rain
1:35 AM 55.9 °F - 54.7 °F 96% 29.65 in 3.0 mi SE 12.7 mph 19.6 mph 0.20 in Rain Rain
1:55 AM 56.3 °F - 54.9 °F 95% 29.61 in 2.5 mi SE 15.0 mph - 0.34 in Rain Rain
2:15 AM 57.0 °F - 55.9 °F 96% 29.59 in 3.0 mi SSE 13.8 mph 18.4 mph 0.07 in Rain Rain
2:35 AM 57.9 °F - 56.5 °F 95% 29.55 in 3.0 mi SE 10.4 mph 21.9 mph 0.18 in Rain Rain
2:55 AM 59.2 °F - 58.1 °F 96% 29.51 in 3.0 mi South 10.4 mph 18.4 mph 0.30 in Rain Rain
3:15 AM 60.8 °F - 59.4 °F 95% 29.49 in 3.0 mi South 11.5 mph 21.9 mph 0.06 in Rain Rain
3:35 AM 61.2 °F - 59.9 °F 96% 29.47 in 4.0 mi South 12.7 mph 19.6 mph 0.09 in Rain Rain
3:55 AM 61.9 °F - 60.3 °F 94% 29.45 in 3.0 mi South 15.0 mph 23.0 mph 0.12 in Rain Rain
4:15 AM 62.4 °F - 60.8 °F 94% 29.42 in 4.0 mi South 13.8 mph 21.9 mph 0.04 in Rain Light Rain
4:35 AM 63.3 °F - 61.3 °F 93% 29.42 in 5.0 mi South 18.4 mph 24.2 mph 0.04 in Rain Rain
4:55 AM 63.9 °F - 61.7 °F 93% 29.41 in 7.0 mi South 13.8 mph 25.3 mph 0.05 in   Drizzle
5:15 AM 63.9 °F - 61.7 °F 93% 29.41 in 4.0 mi WSW 6.9 mph - 0.03 in Rain Rain
5:35 AM 64.0 °F - 62.4 °F 94% 29.41 in 3.0 mi West 4.6 mph - 0.18 in Rain Rain
5:55 AM 63.9 °F - 62.6 °F 96% 29.40 in 3.0 mi Calm Calm - 0.27 in Rain Heavy Rain
6:15 AM 62.8 °F - 61.2 °F 94% 29.40 in 2.5 mi WNW 4.6 mph - 0.04 in Rain Rain
6:35 AM 63.1 °F - 61.7 °F 95% 29.40 in 5.0 mi West 5.8 mph - 0.06 in Rain Light Rain
6:55 AM 62.8 °F - 61.2 °F 94% 29.40 in 7.0 mi West 5.8 mph - 0.07 in   Light Drizzle
7:15 AM 61.7 °F - 59.5 °F 93% 29.39 in 5.0 mi West 9.2 mph - 0.02 in Rain Rain
7:35 AM 59.9 °F - 57.7 °F 93% 29.41 in 5.0 mi West 8.1 mph - 0.04 in Rain Rain
7:55 AM 58.8 °F - 56.7 °F 93% 29.42 in 5.0 mi West 6.9 mph - 0.07 in Rain Light Rain
8:15 AM 57.4 °F - 55.4 °F 93% 29.41 in 5.0 mi West 6.9 mph - N/A   Drizzle
8:35 AM 56.5 °F - 54.5 °F 93% 29.43 in 7.0 mi West 6.9 mph - N/A   Overcast
8:55 AM 55.4 °F - 53.4 °F 93% 29.45 in 4.0 mi West 9.2 mph - 0.03 in Rain Light Rain
9:15 AM 53.2 °F - 50.7 °F 91% 29.41 in 4.0 mi North 6.9 mph - 0.02 in Rain Light Rain
9:35 AM 52.5 °F - 49.8 °F 91% 29.42 in 5.0 mi NW 8.1 mph - 0.04 in Rain Light Rain
9:55 AM 51.4 °F - 48.7 °F 90% 29.43 in 5.0 mi NNW 9.2 mph 17.3 mph 0.05 in Rain Light Rain
10:15 AM 50.0 °F - 47.1 °F 90% 29.45 in 4.0 mi NNW 8.1 mph 17.3 mph 0.02 in Rain Light Rain
10:35 AM 48.7 °F - 45.5 °F 89% 29.42 in 5.0 mi NNW 13.8 mph 18.4 mph 0.03 in Rain Rain
10:55 AM 47.8 °F - 44.6 °F 89% 29.40 in 5.0 mi North 6.9 mph - 0.04 in Rain Light Rain
11:15 AM 47.3 °F - 43.7 °F 87% 29.42 in 7.0 mi NNW 10.4 mph 18.4 mph N/A   Overcast
11:35 AM 46.9 °F - 43.0 °F 86% 29.43 in 10.0 mi NW 11.5 mph 17.3 mph N/A   Overcast
11:55 AM 46.6 °F - 42.3 °F 85% 29.42 in 10.0 mi NNW 10.4 mph 16.1 mph N/A   Overcast
12:15 PM 45.9 °F 39.1 °F 41.2 °F 84% 29.45 in 10.0 mi NW 16.1 mph 20.7 mph N/A   Light Drizzle
12:35 PM 44.8 °F 39.0 °F 39.2 °F 81% 29.42 in 10.0 mi NNW 11.5 mph 23.0 mph N/A   Light Drizzle
12:55 PM 44.6 °F 38.4 °F 38.7 °F 80% 29.41 in 10.0 mi NW 12.7 mph 21.9 mph N/A   Light Drizzle
1:15 PM 44.2 °F 38.0 °F 38.3 °F 80% 29.42 in 10.0 mi NNW 12.7 mph 18.4 mph N/A   Light Drizzle
1:35 PM 43.7 °F 36.0 °F 37.4 °F 78% 29.45 in 10.0 mi NW 17.3 mph 23.0 mph N/A Rain Rain
1:55 PM 43.2 °F 37.0 °F 37.8 °F 81% 29.43 in 5.0 mi NNW 11.5 mph - N/A Rain Rain
2:15 PM 42.6 °F 36.8 °F 37.4 °F 82% 29.41 in 7.0 mi NNW 10.4 mph 19.6 mph 0.01 in Rain Rain
2:35 PM 42.4 °F 36.1 °F 37.6 °F 83% 29.42 in 7.0 mi NNW 11.5 mph 18.4 mph 0.01 in Rain Light Rain
2:55 PM 42.4 °F 36.1 °F 37.2 °F 82% 29.40 in 7.0 mi NNW 11.5 mph 17.3 mph 0.01 in Rain Light Rain
3:15 PM 42.3 °F 34.8 °F 36.5 °F 80% 29.44 in 7.0 mi NW 15.0 mph 20.7 mph N/A   Drizzle
3:35 PM 41.9 °F 34.6 °F 36.1 °F 80% 29.42 in 5.0 mi NNW 13.8 mph - 0.01 in Rain Rain
3:55 PM 41.4 °F 34.0 °F 36.1 °F 82% 29.40 in 7.0 mi NNW 13.8 mph 18.4 mph 0.01 in Rain Light Rain
4:15 PM 41.2 °F 33.4 °F 36.0 °F 82% 29.40 in 7.0 mi NNW 15.0 mph 20.7 mph N/A   Drizzle
4:35 PM 40.6 °F 33.0 °F 35.8 °F 83% 29.39 in 4.0 mi NNW 13.8 mph 24.2 mph 0.01 in Rain Light Rain
4:55 PM 40.6 °F 32.0 °F 35.6 °F 82% 29.45 in 10.0 mi NW 17.3 mph 23.0 mph 0.01 in   Overcast
5:15 PM 40.5 °F 32.8 °F 35.4 °F 82% 29.45 in 7.0 mi NW 13.8 mph 24.2 mph N/A   Drizzle
5:35 PM 39.6 °F 30.0 °F 35.2 °F 85% 29.50 in 4.0 mi NW 19.6 mph 25.3 mph N/A Rain Rain
5:55 PM 39.2 °F 30.2 °F 35.1 °F 85% 29.52 in 5.0 mi NW 17.3 mph 25.3 mph N/A   Drizzle
6:15 PM 38.7 °F 29.5 °F 34.7 °F 86% 29.53 in 5.0 mi NW 17.3 mph 23.0 mph 0.01 in   Drizzle
6:35 PM 38.3 °F 29.7 °F 34.3 °F 86% 29.54 in 7.0 mi NW 15.0 mph 24.2 mph 0.01 in   Light Drizzle
6:55 PM 39.2 °F 31.6 °F 33.8 °F 81% 29.56 in 10.0 mi WNW 12.7 mph - 0.01 in   Overcast
7:15 PM 39.2 °F 32.0 °F 34.0 °F 82% 29.58 in 10.0 mi WNW 11.5 mph - N/A   Overcast
7:35 PM 39.2 °F 31.2 °F 33.4 °F 80% 29.58 in 10.0 mi NW 13.8 mph 23.0 mph N/A   Overcast
7:55 PM 39.4 °F 31.4 °F 32.7 °F 77% 29.59 in 10.0 mi WNW 13.8 mph - N/A   Overcast
8:15 PM 39.6 °F 30.3 °F 32.0 °F 74% 29.60 in 10.0 mi NW 18.4 mph 21.9 mph N/A   Overcast
8:35 PM 39.6 °F 30.0 °F 31.6 °F 73% 29.62 in 10.0 mi NW 19.6 mph 25.3 mph N/A   Overcast
8:55 PM 39.0 °F 29.3 °F 29.7 °F 69% 29.63 in 10.0 mi NW 19.6 mph 28.8 mph N/A   Overcast
9:15 PM 38.5 °F 28.1 °F 28.2 °F 67% 29.65 in 10.0 mi NW 21.9 mph 29.9 mph N/A   Overcast
9:35 PM 37.6 °F 28.8 °F 26.4 °F 64% 29.67 in 10.0 mi NW 15.0 mph 29.9 mph N/A   Overcast
9:55 PM 37.4 °F 27.8 °F 25.2 °F 61% 29.68 in 10.0 mi NW 17.3 mph 29.9 mph N/A   Overcast
10:15 PM 37.0 °F 26.7 °F 24.4 °F 60% 29.70 in 10.0 mi WNW 19.6 mph 27.6 mph N/A   Overcast
10:35 PM 36.5 °F 26.3 °F 23.4 °F 59% 29.72 in 10.0 mi NW 18.4 mph 24.2 mph N/A   Mostly Cloudy
10:55 PM 36.5 °F 24.4 °F 21.4 °F 54% 29.74 in 10.0 mi NW 26.5 mph 32.2 mph N/A   Scattered Clouds
11:15 PM 36.0 °F 25.3 °F 21.0 °F 55% 29.75 in 10.0 mi NW 19.6 mph 27.6 mph N/A   Scattered Clouds
11:35 PM 35.6 °F 25.2 °F 21.0 °F 55% 29.76 in 10.0 mi WNW 18.4 mph 23.0 mph N/A   Scattered Clouds
11:55 PM 35.4 °F 26.0 °F 21.0 °F 56% 29.78 in 10.0 mi NW 15.0 mph 20.7 mph N/A   Clear